Weather History for KTLH - May, 2013

Change the Weather History Date:

Saturday, May 18, 2013

  Actual Average Record
Temperature  
Mean Temperature 73 °F 75 °F  
Max Temperature 86 °F 88 °F 97 °F (1998)
Min Temperature 59 °F 62 °F 43 °F (2011)
Degree Days  
Heating Degree Days 0    
Month to date heating degree days 14  
Since 1 July heating degree days 1332  
Cooling Degree Days 8    
Month to date cooling degree days 81  
Year to date cooling degree days 278  
Growing Degree Days 22 (Base 50)    
Moisture  
Dew Point 61 °F    
Average Humidity 67    
Maximum Humidity 90    
Minimum Humidity 43    
Precipitation  
Precipitation 0.02 in 0.10 in 1.68 in (1963)
Month to date precipitation 0.36 1.67  
Year to date precipitation 22.32 19.86  
Sea Level Pressure  
Sea Level Pressure 30.08 in    
Wind  
Wind Speed 2 mph (SE)    
Max Wind Speed 12 mph    
Max Gust Speed 15 mph    
Visibility 10 miles    
Events Fog , Rain    
T = Trace of Precipitation, MM = Missing Value Source: NWS Daily Summary

Daily Weather History Graph

Daily Weather History Graph

Search for Another Location

Airport or City:

Trip Planner

Search our weather history database for the weather conditions in past years. The results will help you decide how hot, cold, wet, or windy it might be!

Date:

Astronomy

May. 18, 2013 Rise Set
Actual Time 6:41 AM EDT 8:26 PM EDT
Civil Twilight 6:14 AM EDT 8:53 PM EDT
Nautical Twilight 5:42 AM EDT 9:25 PM EDT
Astronomical Twilight 5:09 AM EDT 9:58 PM EDT
Moon 1:56 PM EDT (5/18) 2:03 AM EDT (5/18)
Length of Visible Light 14h 38m
Length of Day
13h 45m
First Quarter, 55% of the Moon is Illuminated
May 18
First Quarter
May 25
Full
May 31
Last Quarter
Jun 8
New
Jun 16
First Quarter

Hourly Weather History & Observations

Time (EDT) Temp. Heat Index Dew Point Humidity Pressure Visibility Wind Dir Wind Speed Gust Speed Precip Events Conditions
12:53 AM 64.9 °F - 57.9 °F 78% 30.08 in 10.0 mi Calm Calm - N/A   Clear
1:53 AM 63.0 °F - 57.9 °F 84% 30.07 in 10.0 mi Calm Calm - N/A   Clear
2:53 AM 61.0 °F - 57.0 °F 87% 30.06 in 10.0 mi Calm Calm - N/A   Clear
3:53 AM 61.0 °F - 57.0 °F 87% 30.05 in 10.0 mi Calm Calm - N/A   Clear
4:53 AM 62.1 °F - 57.9 °F 86% 30.09 in 10.0 mi East 3.5 mph - N/A   Clear
5:53 AM 60.1 °F - 57.0 °F 90% 30.09 in 9.0 mi Calm Calm - N/A Fog Patches of Fog
6:53 AM 61.0 °F - 55.9 °F 83% 30.09 in 10.0 mi Calm Calm - N/A Fog Patches of Fog
7:53 AM 66.0 °F - 61.0 °F 84% 30.12 in 10.0 mi Calm Calm - N/A   Partly Cloudy
8:53 AM 72.0 °F - 63.0 °F 73% 30.12 in 10.0 mi SE 3.5 mph - N/A   Partly Cloudy
9:53 AM 78.1 °F - 63.0 °F 60% 30.13 in 10.0 mi Variable 3.5 mph - N/A   Partly Cloudy
10:53 AM 80.1 °F 81.1 °F 61.0 °F 52% 30.12 in 10.0 mi Calm Calm - N/A   Partly Cloudy
11:53 AM 84.9 °F 84.4 °F 59.0 °F 41% 30.14 in 10.0 mi Variable 6.9 mph - N/A   Partly Cloudy
12:53 PM 82.9 °F 82.8 °F 59.0 °F 44% 30.11 in 10.0 mi WSW 6.9 mph - N/A   Partly Cloudy
1:53 PM 84.0 °F 83.8 °F 59.0 °F 43% 30.10 in 10.0 mi NNW 3.5 mph - 0.00 in   Scattered Clouds
2:53 PM 84.2 °F 84.4 °F 60.8 °F 45% 30.10 in 10.0 mi Variable 3.5 mph - N/A   Mostly Cloudy
3:53 PM 82.0 °F 83.1 °F 63.0 °F 52% 30.03 in 10.0 mi SE 11.5 mph - 0.00 in Rain Light Rain
4:53 PM 82.0 °F 83.0 °F 62.1 °F 51% 30.06 in 10.0 mi NW 4.6 mph - 0.01 in Rain Light Rain
5:53 PM 81.0 °F 83.3 °F 66.9 °F 62% 30.05 in 10.0 mi Calm Calm - 0.01 in   Mostly Cloudy
6:53 PM 82.0 °F 83.4 °F 64.0 °F 54% 30.04 in 10.0 mi Calm Calm - N/A   Scattered Clouds
7:53 PM 81.0 °F 81.9 °F 62.1 °F 52% 30.04 in 10.0 mi Calm Calm - N/A   Partly Cloudy
8:53 PM 75.9 °F - 66.9 °F 74% 30.04 in 10.0 mi Calm Calm - N/A   Clear
9:53 PM 73.0 °F - 66.9 °F 81% 30.06 in 10.0 mi Calm Calm - N/A   Clear
10:53 PM 70.0 °F - 66.0 °F 87% 30.07 in 10.0 mi Calm Calm - N/A   Partly Cloudy
11:53 PM 71.1 °F - 66.0 °F 84% 30.08 in 10.0 mi Calm Calm - N/A   Overcast